Weather History for Galax, VA

Change the Weather History Date:

Wednesday, January 22, 2014

  Actual Average (KBLF) Record (KBLF)
Temperature  
Mean Temperature 12 °F 34 °F  
Max Temperature 17 °F 42 °F 65 °F (1967)
Min Temperature 6 °F 26 °F -5 °F (1970)
Degree Days  
Heating Degree Days 54 31  
Month to date heating degree days 682  
Since 1 July heating degree days 2447  
Cooling Degree Days 0 0  
Month to date cooling degree days 0  
Year to date cooling degree days 0  
Moisture  
Dew Point -4 °F    
Average Humidity 47    
Maximum Humidity 73    
Minimum Humidity 30    
Precipitation  
Precipitation 0.00 in 0.09 in 0.90 in (1987)
Month to date precipitation 2.07  
Year to date precipitation 2.07  
Snow  
Snow 0.00 in - - ()
Month to date snowfall  
Since 1 July snowfall  
Snow Depth -    
Sea Level Pressure  
Sea Level Pressure 29.87 in    
Wind  
Wind Speed 14 mph (WNW)    
Max Wind Speed 24 mph    
Max Gust Speed 30 mph    
Visibility 10 miles    
Events Snow    
T = Trace of Precipitation, MM = Missing Value Source: NWS Daily Summary

Daily Weather History Graph

Daily Weather History Graph

Search for Another Location

Airport:

Trip Planner

Search our weather history database for the weather conditions in past years. The results will help you decide how hot, cold, wet, or windy it might be!

Date:

Astronomy

Jan. 22, 2014 Rise Set
Actual Time 7:32 AM EST 5:38 PM EST
Civil Twilight 7:04 AM EST 6:05 PM EST
Nautical Twilight 6:32 AM EST 6:37 PM EST
Astronomical Twilight 6:01 AM EST 7:08 PM EST
Moon 11:57 PM EST (1/22) 10:42 AM EST (1/22)
Length of Visible Light 11h 01m
Length of Day
10h 06m
Waning Gibbous, 65% of the Moon is Illuminated
Jan 22
Waning Gibbous
Jan 24
Last Quarter
Jan 30
New
Feb 6
First Quarter
Feb 14
Full

Hourly Weather History & Observations

Time (EST) Temp. Windchill Dew Point Humidity Pressure Visibility Wind Dir Wind Speed Gust Speed Precip Events Conditions
12:15 AM 15.8 °F -1.9 °F 6.8 °F 68% 29.77 in 10.0 mi NNW 21.9 mph 26.5 mph N/A   Overcast
12:35 AM 15.8 °F 1.4 °F 6.8 °F 68% 29.78 in 10.0 mi NNW 13.8 mph 25.3 mph N/A Snow Light Snow
12:55 AM 15.8 °F 3.4 °F 6.8 °F 68% 29.78 in 5.0 mi NW 10.4 mph 17.3 mph N/A Snow Light Snow
1:15 AM 14.0 °F -1.4 °F 6.8 °F 73% 29.78 in 7.0 mi NW 15.0 mph 21.9 mph N/A Snow Light Snow
1:35 AM 14.0 °F -5.1 °F 3.2 °F 62% 29.79 in 10.0 mi NW 24.2 mph 29.9 mph N/A Snow Light Snow
1:55 AM 12.2 °F -3.7 °F 3.2 °F 67% 29.79 in 10.0 mi NW 15.0 mph 29.9 mph N/A Snow Light Snow
2:15 AM 12.2 °F -2.5 °F 3.2 °F 67% 29.81 in 10.0 mi NW 12.7 mph 19.6 mph N/A   Overcast
2:35 AM 12.2 °F -1.0 °F 3.2 °F 67% 29.81 in 10.0 mi NW 10.4 mph 20.7 mph N/A   Overcast
2:55 AM 12.2 °F -3.7 °F 1.4 °F 62% 29.81 in 10.0 mi NW 15.0 mph 21.9 mph N/A   Overcast
3:15 AM 12.2 °F -5.8 °F 1.4 °F 62% 29.81 in 10.0 mi WNW 19.6 mph 24.2 mph N/A   Mostly Cloudy
3:35 AM 10.4 °F -2.4 °F 1.4 °F 67% 29.81 in 10.0 mi NNW 9.2 mph 19.6 mph N/A   Scattered Clouds
3:55 AM 10.4 °F -6.0 °F 1.4 °F 67% 29.81 in 10.0 mi NW 15.0 mph 20.7 mph N/A   Scattered Clouds
4:15 AM 10.4 °F -7.2 °F 1.4 °F 67% 29.81 in 10.0 mi NNW 17.3 mph 24.2 mph N/A   Mostly Cloudy
4:55 AM 10.4 °F -9.5 °F -0.4 °F 62% 29.81 in 10.0 mi NNW 23.0 mph 27.6 mph N/A   Mostly Cloudy
5:15 AM 8.6 °F -8.9 °F -2.2 °F 62% 29.82 in 10.0 mi NW 16.1 mph - N/A   Scattered Clouds
5:35 AM 8.6 °F -10.0 °F -2.2 °F 62% 29.82 in 10.0 mi NW 18.4 mph 26.5 mph N/A   Clear
5:55 AM 8.6 °F -10.0 °F -2.2 °F 62% 29.83 in 10.0 mi NW 18.4 mph 25.3 mph N/A   Clear
6:15 AM 8.6 °F -7.7 °F -4.0 °F 57% 29.83 in 10.0 mi NW 13.8 mph - N/A   Clear
6:35 AM 8.6 °F -11.0 °F -5.8 °F 52% 29.83 in 10.0 mi WNW 20.7 mph 24.2 mph N/A   Clear
6:55 AM 8.6 °F -5.5 °F -5.8 °F 52% 29.84 in 10.0 mi WNW 10.4 mph 20.7 mph N/A   Clear
7:15 AM 8.6 °F -10.0 °F -5.8 °F 52% 29.85 in 10.0 mi WNW 18.4 mph 21.9 mph N/A   Clear
7:35 AM 8.6 °F -8.3 °F -5.8 °F 52% 29.85 in 10.0 mi NW 15.0 mph 20.7 mph N/A   Clear
7:55 AM 6.8 °F -10.0 °F -5.8 °F 56% 29.86 in 10.0 mi NW 13.8 mph 20.7 mph N/A   Clear
8:15 AM 6.8 °F -10.0 °F -5.8 °F 56% 29.87 in 10.0 mi NW 13.8 mph 19.6 mph N/A   Clear
8:35 AM 6.8 °F -10.0 °F -5.8 °F 56% 29.87 in 10.0 mi NW 13.8 mph - N/A   Clear
8:55 AM 6.8 °F -8.6 °F -7.6 °F 52% 29.89 in 10.0 mi NW 11.5 mph 20.7 mph N/A   Clear
9:15 AM 6.8 °F -10.0 °F -7.6 °F 52% 29.90 in 10.0 mi WNW 13.8 mph 18.4 mph N/A   Clear
9:35 AM 8.6 °F -9.5 °F -7.6 °F 48% 29.91 in 10.0 mi NW 17.3 mph 23.0 mph N/A   Clear
9:55 AM 8.6 °F -5.5 °F -7.6 °F 48% 29.91 in 10.0 mi WNW 10.4 mph - N/A   Clear
10:15 AM 8.6 °F -8.3 °F -7.6 °F 48% 29.91 in 10.0 mi WNW 15.0 mph - N/A   Clear
10:35 AM 8.6 °F -8.3 °F -9.4 °F 44% 29.91 in 10.0 mi NW 15.0 mph - N/A   Clear
10:55 AM 10.4 °F -6.0 °F -7.6 °F 44% 29.91 in 10.0 mi NW 15.0 mph 19.6 mph N/A   Clear
11:15 AM 10.4 °F -5.4 °F -5.8 °F 48% 29.91 in 10.0 mi WNW 13.8 mph 17.3 mph N/A   Clear
11:35 AM 12.2 °F -0.2 °F -5.8 °F 45% 29.91 in 10.0 mi WNW 9.2 mph 16.1 mph N/A   Clear
11:55 AM 12.2 °F -2.5 °F -5.8 °F 45% 29.90 in 10.0 mi WNW 12.7 mph 18.4 mph N/A   Clear
12:15 PM 12.2 °F -1.0 °F -7.6 °F 41% 29.89 in 10.0 mi West 10.4 mph 16.1 mph N/A   Clear
12:35 PM 12.2 °F -2.5 °F -7.6 °F 41% 29.87 in 10.0 mi NW 12.7 mph 19.6 mph N/A   Clear
12:55 PM 14.0 °F 2.0 °F -7.6 °F 38% 29.87 in 10.0 mi WNW 9.2 mph - N/A   Clear
1:15 PM 14.0 °F 2.0 °F -7.6 °F 38% 29.87 in 10.0 mi WNW 9.2 mph - N/A   Clear
1:35 PM 15.8 °F 6.1 °F -7.6 °F 35% 29.87 in 10.0 mi West 6.9 mph - N/A   Clear
1:55 PM 15.8 °F 2.7 °F -7.6 °F 35% 29.87 in 10.0 mi NW 11.5 mph - N/A   Clear
2:15 PM 15.8 °F 2.1 °F -7.6 °F 35% 29.86 in 10.0 mi WNW 12.7 mph 17.3 mph N/A   Clear
2:35 PM 15.8 °F 3.4 °F -9.4 °F 32% 29.86 in 10.0 mi NW 10.4 mph 16.1 mph N/A   Clear
2:55 PM 17.6 °F 6.4 °F -9.4 °F 30% 29.87 in 10.0 mi WNW 9.2 mph - N/A   Clear
3:15 PM 17.6 °F 4.3 °F -9.4 °F 30% 29.87 in 10.0 mi NW 12.7 mph - N/A   Clear
3:35 PM 17.6 °F 5.0 °F -7.6 °F 32% 29.87 in 10.0 mi NW 11.5 mph - N/A   Clear
3:55 PM 17.6 °F 4.3 °F -7.6 °F 32% 29.88 in 10.0 mi NW 12.7 mph - N/A   Clear
4:15 PM 17.6 °F 7.3 °F -9.4 °F 30% 29.88 in 10.0 mi WNW 8.1 mph - N/A   Clear
4:35 PM 17.6 °F 8.2 °F -7.6 °F 32% 29.88 in 10.0 mi NW 6.9 mph - N/A   Clear
4:55 PM 17.6 °F 8.2 °F -7.6 °F 32% 29.88 in 10.0 mi WNW 6.9 mph - N/A   Clear
5:15 PM 17.6 °F 9.3 °F -7.6 °F 32% 29.88 in 10.0 mi NW 5.8 mph - N/A   Scattered Clouds
5:35 PM 17.6 °F 10.7 °F -7.6 °F 32% 29.88 in 10.0 mi NW 4.6 mph - N/A   Scattered Clouds
5:55 PM 15.8 °F 10.2 °F -5.8 °F 38% 29.89 in 10.0 mi NNW 3.5 mph - N/A   Clear
6:15 PM 15.8 °F - -5.8 °F 38% 29.90 in 10.0 mi Calm Calm - N/A   Scattered Clouds
6:35 PM 15.8 °F 10.2 °F -5.8 °F 38% 29.90 in 10.0 mi WNW 3.5 mph - N/A   Overcast
6:55 PM 17.6 °F 10.7 °F -2.2 °F 42% 29.91 in 10.0 mi WNW 4.6 mph - N/A   Overcast
7:15 PM 17.6 °F 10.7 °F -0.4 °F 45% 29.91 in 10.0 mi WNW 4.6 mph - N/A   Overcast
7:35 PM 17.6 °F - -0.4 °F 45% 29.91 in 10.0 mi Calm Calm - N/A   Overcast
7:55 PM 17.6 °F 8.2 °F -0.4 °F 45% 29.92 in 10.0 mi WNW 6.9 mph - N/A   Overcast
8:15 PM 17.6 °F - -0.4 °F 45% 29.92 in 10.0 mi Calm Calm - N/A   Overcast
8:35 PM 17.6 °F 9.3 °F 1.4 °F 49% 29.93 in 10.0 mi West 5.8 mph - N/A   Overcast
8:55 PM 17.6 °F 9.3 °F -0.4 °F 45% 29.94 in 10.0 mi West 5.8 mph - N/A   Overcast
9:15 PM 17.6 °F 8.2 °F -0.4 °F 45% 29.93 in 10.0 mi West 6.9 mph - N/A   Overcast
9:35 PM 17.6 °F 9.3 °F -2.2 °F 42% 29.94 in 10.0 mi West 5.8 mph - N/A   Overcast
9:55 PM 17.6 °F 8.2 °F -5.8 °F 35% 29.94 in 10.0 mi West 6.9 mph - N/A   Overcast
10:15 PM 17.6 °F 7.3 °F -5.8 °F 35% 29.95 in 10.0 mi West 8.1 mph - N/A   Overcast
10:35 PM 17.6 °F 7.3 °F -7.6 °F 32% 29.95 in 10.0 mi West 8.1 mph 18.4 mph N/A   Mostly Cloudy
10:55 PM 17.6 °F 5.7 °F -7.6 °F 32% 29.95 in 10.0 mi West 10.4 mph 23.0 mph N/A   Mostly Cloudy
11:15 PM 17.6 °F 5.0 °F -7.6 °F 32% 29.96 in 10.0 mi West 11.5 mph 17.3 mph N/A   Scattered Clouds
11:35 PM 15.8 °F 1.4 °F -7.6 °F 35% 29.95 in 10.0 mi West 13.8 mph 20.7 mph N/A   Clear
11:55 PM 15.8 °F 2.7 °F -7.6 °F 35% 29.95 in 10.0 mi West 11.5 mph 19.6 mph N/A   Clear